RH
42 42 47 44 45 44 41 40 38 37 34 33 31 33 35 36 40 40 44 44 43 45 42 41 40 36 33 33 30 22 19 17 18 17 20 21 21 21 25 32 48 63 47 50 43
44 43 45 44 45 45 46 44 40 36 36 35 35 34 36 36 39 45 46 43 42 46 47 44 38 35 28 22 21 18 16 16 16 19 19 20 20 27 35 41 52 54 57 50 50
40 37 34 35 38 38 36 36 32 32 29 27 25 26 28 32 38 36 34 29 26 29 32 30 27 24 21 20 19 16 16 18 23 20 19 20 22 32 45 44 47 44 45 45 44
39 39 36 32 32 33 35 34 33 32 30 29 25 23 23 25 31 33 29 23 20 18 17 16 16 15 18 19 17 16 18 21 24 24 23 24 30 44 47 41 42 42 50 43 39
29 27 27 29 29 27 28 30 31 27 24 25 24 18 16 17 21 24 25 24 21 18 16 14 14 15 16 15 15 17 20 25 25 20 25 36 42 39 39 43 45 45 35 31 29
25 25 23 22 23 22 23 24 26 26 24 22 21 20 16 15 15 18 17 17 16 15 14 15 17 17 16 16 17 19 22 22 23 38 55 60 55 50 47 44 39 20 15 15 14
26 25 23 22 20 20 20 20 21 24 23 19 14 16 17 16 14 14 15 16 17 18 19 20 18 18 19 19 22 23 22 33 62 81 75 57 51 41 38 30 17 15 13 12 13
16 15 16 16 17 18 18 19 20 18 15 14 14 13 14 14 14 16 18 18 20 22 21 18 16 17 18 20 22 26 54 84 74 66 51 42 41 34 25 14 11 10 7 6 7
18 18 17 16 14 14 13 13 15 16 14 14 16 17 18 16 16 18 21 22 23 22 20 18 17 23 27 29 46 78 81 69 56 44 40 42 33 20 12 9 8 6 4 4 4
34 32 23 17 14 14 14 16 16 14 13 17 20 22 19 19 20 20 22 24 24 21 19 17 23 31 38 66 88 78 65 54 43 41 44 33 19 12 8 7 5 4 4 3 4
62 43 27 18 14 12 12 13 16 17 17 18 18 23 24 25 22 23 26 26 20 18 16 24 35 43 69 75 66 58 52 41 39 40 32 22 12 10 7 6 4 4 3 3 3
19 12 10 10 13 14 14 16 14 17 21 20 17 21 26 27 24 25 26 19 17 17 24 32 46 63 71 63 57 47 40 44 50 37 28 17 11 9 8 5 5 4 3 3 3
11 10 10 10 10 10 11 16 19 20 18 20 20 21 28 27 27 27 21 19 20 25 32 46 63 72 64 54 46 42 44 48 35 33 22 13 12 7 7 6 5 4 4 4 4
11 10 10 9 9 10 10 12 18 22 23 21 20 22 30 29 28 24 21 21 25 33 42 65 68 68 57 46 45 46 54 35 34 29 19 13 13 8 6 6 5 4 5 5 5
12 11 11 10 10 11 11 12 14 23 23 18 21 30 32 30 26 23 22 21 24 40 59 60 70 64 49 44 46 58 40 41 38 25 16 13 9 10 6 6 5 5 6 6 5
14 14 13 12 11 11 12 14 14 23 22 20 26 31 30 28 24 22 20 22 37 63 73 72 66 59 48 48 60 47 45 40 35 20 14 11 11 10 7 5 5 6 6 6 5
16 16 15 13 13 13 14 14 17 22 19 24 30 31 29 25 21 19 21 25 56 69 81 73 64 60 48 55 56 49 45 32 30 17 14 10 12 10 6 6 5 6 8 7 6
17 17 17 17 15 16 17 18 20 19 24 30 31 30 25 21 18 22 26 58 85 79 81 73 63 52 54 59 57 50 40 31 32 20 15 13 13 9 7 7 6 6 8 7 7
20 16 17 18 16 17 17 19 24 32 32 32 29 26 21 19 23 33 75 88 93 85 75 65 60 62 61 54 50 46 36 32 31 27 15 12 12 9 7 7 6 7 9 8 8
31 17 15 15 17 18 21 24 26 28 30 28 23 20 18 23 37 90 94 96 84 78 74 58 60 70 65 58 54 56 39 34 30 20 14 14 13 8 7 6 6 7 8 7 8
63 28 16 16 16 18 19 20 22 22 20 18 18 18 30 50 84 100 85 83 79 70 59 53 66 61 58 51 51 43 35 33 31 22 13 13 13 9 6 6 7 7 7 6 6
38 63 48 20 16 16 17 17 18 17 17 19 25 39 60 73 93 100 86 77 69 62 56 57 77 66 69 58 54 57 37 35 27 18 12 11 14 8 6 5 7 7 7 7 7
38 38 60 60 54 46 37 33 33 43 44 52 67 82 98 97 85 89 80 72 66 65 62 75 74 54 66 42 51 54 30 50 30 16 13 10 12 6 6 5 7 6 5 6 7
46 42 39 64 67 72 75 71 68 83 88 84 93 96 99 91 83 85 67 67 69 70 69 77 79 61 63 51 55 48 31 49 33 15 11 12 10 7 4 5 6 5 4 5 6
44 42 40 48 62 70 78 74 83 87 93 82 95 93 84 94 93 82 66 71 74 72 73 73 83 60 54 43 62 49 34 46 35 13 9 11 10 7 4 5 3 3 3 3 6
34 38 37 42 64 71 81 87 92 97 100 100 96 95 96 90 71 74 77 73 74 72 76 89 85 69 59 48 64 39 35 40 23 11 10 10 9 6 5 4 3 3 3 4 5
27 30 34 34 52 83 85 86 82 87 94 84 86 89 71 67 71 69 73 76 62 68 82 98 87 59 66 60 59 46 46 25 20 10 9 10 8 7 5 4 3 3 3 4 5
Wind_Speed
23 25 26 26 27 28 28 29 29 30 32 32 33 33 35 37 37 37 39 40 41 41 42 44 47 49 50 53 55 57 59 62 62 62 59 61 61 63 62 58 63 66 69 70 72
29 29 31 32 32 33 34 35 36 36 36 37 38 38 40 39 39 41 43 45 47 48 49 51 52 55 57 58 60 63 64 65 66 67 65 65 66 68 67 67 71 72 75 80 79
33 35 36 35 37 37 37 37 37 37 37 38 39 41 43 44 44 44 46 47 50 52 53 55 58 61 63 63 65 67 68 69 70 69 70 71 73 72 73 74 79 80 84 86 87
39 40 40 41 40 40 41 41 40 39 40 42 43 43 46 47 47 49 50 51 52 54 57 59 62 62 64 66 69 69 68 68 69 70 74 77 76 79 83 83 89 91 95 96 97
44 46 47 47 46 45 44 44 44 45 46 46 47 47 47 50 51 52 53 55 56 58 60 61 62 63 63 66 67 69 68 68 71 75 76 77 81 88 92 97 103 112 109 107 108
50 51 51 51 51 51 50 48 49 49 49 49 51 52 52 52 53 54 55 57 59 59 59 59 59 60 64 65 66 65 66 70 73 75 80 85 90 98 104 111 120 112 108 110 109
57 57 56 56 55 55 54 52 51 51 52 54 55 56 53 55 54 55 55 55 54 53 54 55 58 60 62 63 64 67 67 71 76 81 87 94 101 111 120 121 118 117 112 108 105
62 63 63 63 62 60 58 57 55 55 55 56 57 55 55 55 53 50 50 49 49 50 54 57 60 63 66 66 66 66 68 74 83 87 96 103 107 114 121 115 110 103 95 87 84
66 67 68 67 64 64 62 60 59 59 58 57 56 54 51 50 48 48 48 48 50 54 57 60 64 67 65 62 63 65 71 78 85 94 101 110 104 109 113 106 91 83 79 72 73
54 59 63 64 65 64 61 56 55 57 57 54 51 48 48 47 47 47 48 51 55 59 61 63 67 63 60 61 66 71 78 85 93 98 105 106 109 108 104 87 78 69 65 65 68
57 60 59 59 57 53 55 55 54 51 52 51 49 49 48 46 47 48 49 53 57 59 60 64 61 58 60 64 70 75 82 89 97 103 101 104 109 101 88 78 68 60 58 57 60
59 61 61 61 61 58 53 51 51 52 53 51 51 50 47 47 47 47 51 53 57 59 63 61 57 59 64 68 74 81 87 94 100 106 98 101 108 95 78 71 61 54 51 50 54
54 50 47 46 47 54 55 51 48 48 51 52 52 49 47 46 46 50 51 54 58 62 61 56 59 62 67 73 78 87 91 99 103 94 98 99 99 89 71 64 56 48 47 47 50
47 42 37 35 35 38 42 47 47 45 44 48 50 49 46 45 49 50 53 57 59 60 55 56 62 67 71 76 83 89 98 103 99 95 92 98 83 88 70 57 51 45 43 45 48
43 37 33 29 27 28 32 37 42 41 40 40 43 43 43 46 47 52 55 57 59 56 56 59 65 70 75 82 88 97 103 103 98 95 93 90 83 77 72 57 45 44 39 42 46
39 32 29 26 24 23 25 29 34 39 39 37 39 39 43 48 51 54 55 57 56 55 59 63 69 75 81 87 94 98 106 102 99 92 89 83 77 74 70 59 43 39 36 39 43
37 29 26 25 23 21 22 26 30 34 35 37 38 41 45 48 54 55 55 56 55 56 61 65 72 79 85 92 98 99 106 97 97 92 88 83 73 73 69 59 44 35 34 36 42
34 29 25 23 19 18 20 23 27 31 35 35 38 42 46 51 54 55 55 53 56 61 64 69 77 83 89 96 101 105 106 101 97 94 85 82 78 76 62 54 40 32 32 34 40
36 30 27 25 22 22 24 27 29 33 35 38 40 45 49 53 51 53 51 55 60 64 69 75 80 87 93 101 104 110 105 99 97 94 83 80 75 71 60 48 39 31 29 31 38
36 32 28 28 26 27 28 29 32 34 38 41 43 48 49 49 52 51 54 58 63 68 73 79 83 91 99 104 107 110 108 102 100 91 83 80 78 67 62 46 38 31 32 32 37
36 34 31 32 30 31 31 32 35 37 41 44 46 46 47 49 48 53 60 62 68 72 77 83 87 96 101 106 109 111 105 98 98 92 84 76 77 69 61 42 34 31 34 35 37
37 35 34 32 32 34 36 36 39 41 41 42 44 45 45 45 50 58 64 67 72 76 81 87 92 99 105 110 110 112 108 102 98 91 85 74 71 67 62 42 34 29 30 37 39
38 38 35 34 35 35 32 31 32 38 41 42 42 44 49 54 56 60 65 71 76 81 86 90 96 102 107 111 109 108 101 104 100 91 85 76 71 66 52 45 31 32 27 36 42
41 41 42 38 39 39 37 36 35 41 41 43 47 50 53 58 60 64 69 74 80 86 90 91 99 104 108 114 114 110 103 107 100 90 82 77 68 62 54 37 32 33 30 35 43
46 46 43 43 47 48 48 45 44 46 50 52 51 53 56 59 63 69 74 80 85 90 94 97 102 105 109 113 113 112 105 110 99 88 82 76 70 60 50 40 30 32 31 34 42
49 49 49 48 48 50 52 50 50 50 52 52 57 58 61 66 68 74 79 84 87 93 98 102 105 110 111 112 113 109 106 108 94 86 80 76 67 58 47 38 34 29 32 32 41
53 53 52 51 52 54 54 53 51 52 56 61 62 65 70 72 76 81 84 88 92 97 100 103 109 112 112 113 113 109 108 100 92 86 78 75 67 59 47 38 33 30 31 32 39
Wind_Direction
284 283 282 284 283 279 280 280 279 280 283 285 290 292 294 291 288 286 286 288 288 286 288 289 290 290 290 291 293 293 293 290 288 289 285 283 283 285 281 274 273 272 277 273 269
285 284 281 281 280 280 280 282 281 282 283 284 287 288 290 290 289 287 287 289 290 290 290 290 291 292 292 293 293 293 291 289 290 288 287 285 283 281 278 276 275 272 270 271 268
280 280 281 280 280 280 280 278 280 280 283 285 287 286 287 285 284 287 288 290 291 290 290 290 291 291 291 291 291 293 291 291 289 289 289 287 285 281 278 278 276 273 275 272 269
277 278 279 279 279 280 279 278 278 280 283 287 288 288 289 286 284 284 286 287 289 290 291 291 290 291 291 291 292 292 291 288 287 287 286 286 288 287 285 282 279 279 277 274 269
277 278 279 278 278 277 277 276 277 280 283 284 285 286 288 288 286 283 282 284 285 287 288 288 288 290 291 291 290 289 288 287 286 287 289 290 290 290 290 287 285 278 271 269 268
275 275 275 277 276 277 277 277 277 277 280 283 283 283 284 287 285 283 285 285 285 287 288 290 292 293 291 291 289 289 288 289 291 293 294 294 293 289 288 283 277 280 279 275 269
280 279 278 277 277 278 278 277 277 276 278 282 283 283 283 286 284 285 287 287 288 290 292 293 294 297 298 295 294 293 294 297 297 296 295 294 293 292 286 284 287 286 281 274 267
282 279 278 277 276 276 276 275 275 277 280 282 283 283 283 284 284 287 289 290 290 292 294 297 298 300 298 296 294 298 300 300 299 297 297 296 295 293 292 296 291 285 279 270 259
282 280 279 278 277 275 273 273 274 275 279 282 282 283 285 283 285 287 289 291 293 296 299 300 301 300 299 300 303 302 300 299 299 300 301 302 299 297 299 297 292 286 275 263 255
286 283 280 277 275 274 273 273 274 273 276 278 281 284 285 283 284 288 291 294 296 298 298 300 303 301 304 305 302 303 302 302 303 305 308 307 301 303 303 300 295 285 274 262 250
289 285 282 280 278 274 271 271 271 274 273 276 282 285 285 281 281 288 292 295 297 298 299 303 303 304 305 304 304 305 305 307 309 312 315 307 303 305 307 304 297 286 273 261 249
292 289 285 278 274 272 269 269 268 268 270 274 280 284 284 280 283 290 295 298 301 302 304 305 304 306 306 307 308 308 308 309 315 319 317 311 308 312 310 307 300 288 272 258 246
300 297 291 284 277 269 266 264 266 267 267 270 275 281 284 282 285 291 295 301 303 305 306 307 307 306 308 310 309 309 313 318 323 322 320 313 313 313 313 310 302 288 273 259 248
304 302 297 289 283 273 264 259 258 264 269 267 271 278 281 284 289 293 297 301 303 305 306 306 307 309 311 310 312 314 318 323 327 325 322 316 318 314 317 313 304 289 273 261 247
308 305 301 293 284 274 266 257 255 259 268 273 272 277 282 285 288 294 298 300 304 304 304 305 308 310 311 313 315 319 322 327 331 329 323 320 319 314 319 315 305 291 275 261 247
311 308 304 294 286 277 266 259 256 256 268 272 275 277 280 287 291 295 297 300 304 303 304 310 311 312 313 316 319 323 329 332 332 330 325 322 320 317 318 317 307 290 275 261 246
313 310 303 295 290 279 267 262 257 261 270 273 275 279 284 288 293 295 298 303 304 304 307 310 312 313 316 318 322 325 331 334 336 331 328 324 321 318 321 320 308 289 272 257 244
314 305 302 293 289 283 274 269 267 268 273 273 276 281 287 292 295 298 304 304 306 308 310 313 313 315 318 321 325 329 333 334 337 333 330 327 322 321 329 318 307 286 269 256 244
318 304 296 293 290 285 283 281 279 274 275 278 283 288 291 295 298 302 304 305 306 309 312 313 316 318 321 324 328 331 334 335 334 333 330 328 321 324 326 313 306 284 265 252 243
319 313 299 288 284 282 282 284 283 281 281 283 287 290 292 296 301 301 303 304 307 310 313 315 319 321 323 326 329 332 334 336 333 333 331 331 324 328 321 319 297 280 256 241 238
313 316 308 294 289 286 285 285 284 284 286 288 289 293 297 299 301 302 303 307 310 312 315 319 322 323 325 326 330 333 334 336 334 333 332 332 327 327 323 318 298 283 262 240 232
300 310 310 308 298 291 288 288 291 290 289 289 293 296 295 297 301 304 307 310 312 315 319 322 323 324 326 328 332 333 334 335 334 333 332 331 329 325 324 315 297 281 266 247 231
294 295 303 303 301 299 296 294 293 293 294 296 298 299 300 301 304 307 309 311 314 317 320 322 323 326 327 330 333 335 334 337 335 332 334 331 330 325 323 312 298 279 258 247 233
285 290 290 292 295 294 294 296 296 297 298 298 298 300 303 305 308 308 308 311 316 317 319 322 323 326 327 329 332 333 334 335 334 331 334 331 329 328 319 313 293 272 252 238 232
280 283 286 285 288 290 291 292 291 292 294 296 298 301 303 303 305 307 311 313 316 317 318 321 323 326 327 329 330 331 333 332 332 330 333 332 329 328 318 311 291 269 251 236 228
278 279 282 284 285 286 287 289 292 295 296 297 298 298 299 302 306 309 312 313 315 316 318 319 322 325 327 329 330 331 334 331 332 329 333 331 329 328 318 308 293 268 252 234 222
277 277 280 281 281 283 285 288 290 290 292 295 295 298 300 304 308 309 311 313 315 316 317 318 321 325 326 327 328 331 334 331 331 327 332 331 329 327 319 307 290 270 248 231 219